Morristown, NJ

8:02 PM EDT on June 18, 2018 (GMT -0400)
Morristown Municipal

Weather History for KMMU - October, 2017

Change the Weather History Date:

Saturday, October 21, 2017

  Actual Average Record
Temperature  
Mean Temperature 56 °F -  
Max Temperature 77 °F 61 °F 83 °F (1947)
Min Temperature 35 °F 37 °F 19 °F (1972)
Degree Days  
Heating Degree Days 9    
Growing Degree Days 6 (Base 50)    
Moisture  
Dew Point 41 °F    
Average Humidity 81    
Maximum Humidity 100    
Minimum Humidity 24    
Precipitation  
Precipitation 0.00 in - - ()
Sea Level Pressure  
Sea Level Pressure 30.30 in    
Wind  
Wind Speed 1 mph (WSW)    
Max Wind Speed 7 mph    
Max Gust Speed -    
Visibility 10 miles    
Events      
Averages and records for this station are not official NWS values.
T = Trace of Precipitation, MM = Missing Value Source: NWS Daily Summary

Daily Weather History Graph

Daily Weather History Graph

Search for Another Location

Airport or City:

Astronomy

Oct. 21, 2017 Rise Set
Actual Time 7:15 AM EDT 6:08 PM EDT
Civil Twilight 6:47 AM EDT 6:35 PM EDT
Nautical Twilight 6:15 AM EDT 7:07 PM EDT
Astronomical Twilight 5:44 AM EDT 7:39 PM EDT
Moon 8:50 AM EDT (10/21) 7:36 PM EDT (10/21)
Length of Visible Light 11h 47m
Length of Day
10h 52m
Waxing Crescent, 3% of the Moon is Illuminated
Oct 21
Waxing Crescent
Oct 27
First Quarter
Nov 4
Full
Nov 10
Last Quarter
Nov 18
New

Hourly Weather History & Observations

Time (EDT) Temp. Dew Point Humidity Pressure Visibility Wind Dir Wind Speed Gust Speed Precip Events Conditions
12:15 AM 44.6 °F 41.0 °F 87% 30.23 in 10.0 mi Calm Calm - N/A   Clear
12:35 AM 44.6 °F 41.0 °F 87% 30.23 in 10.0 mi Calm Calm - N/A   Clear
12:55 AM 42.8 °F 41.0 °F 93% 30.23 in 10.0 mi Calm Calm - N/A   Clear
1:15 AM 42.8 °F 41.0 °F 93% 30.25 in 10.0 mi Calm Calm - N/A   Clear
1:35 AM 42.8 °F 41.0 °F 93% 30.25 in 10.0 mi Calm Calm - N/A   Clear
1:55 AM 42.8 °F 41.0 °F 93% 30.26 in 10.0 mi Calm Calm - N/A   Clear
2:15 AM 41.0 °F 39.2 °F 93% 30.26 in 10.0 mi Calm Calm - N/A   Clear
2:35 AM 41.0 °F 41.0 °F 100% 30.26 in 10.0 mi Calm Calm - N/A   Clear
2:55 AM 41.0 °F 39.2 °F 93% 30.26 in 10.0 mi Calm Calm - N/A   Clear
3:15 AM 39.2 °F 37.4 °F 93% 30.26 in 10.0 mi Calm Calm - N/A   Clear
3:35 AM 39.2 °F 39.2 °F 100% 30.27 in 10.0 mi Calm Calm - N/A   Clear
3:55 AM 37.4 °F 37.4 °F 100% 30.27 in 10.0 mi Calm Calm - N/A   Clear
4:15 AM 37.4 °F 37.4 °F 100% 30.27 in 10.0 mi Calm Calm - N/A   Clear
4:35 AM 37.4 °F 37.4 °F 100% 30.28 in 10.0 mi Calm Calm - N/A   Clear
4:55 AM 37.4 °F 35.6 °F 93% 30.28 in 10.0 mi Calm Calm - N/A   Clear
5:15 AM 37.4 °F 35.6 °F 93% 30.28 in 10.0 mi Calm Calm - N/A   Clear
5:35 AM 37.4 °F 37.4 °F 100% 30.28 in 10.0 mi Calm Calm - N/A   Clear
5:55 AM 37.4 °F 37.4 °F 100% 30.29 in 10.0 mi Calm Calm - N/A   Clear
6:15 AM 35.6 °F 35.6 °F 100% 30.29 in 10.0 mi Calm Calm - N/A   Clear
6:35 AM 37.4 °F 35.6 °F 93% 30.29 in 10.0 mi Calm Calm - N/A   Clear
6:45 AM 37.4 °F 37.4 °F 100% 30.29 in 10.0 mi Calm Calm - N/A   Scattered Clouds
7:55 AM 41.0 °F 39.2 °F 93% 30.33 in 10.0 mi Calm Calm - N/A   Scattered Clouds
8:45 AM 46.4 °F 42.8 °F 87% 30.34 in 10.0 mi Calm Calm - N/A   Scattered Clouds
9:45 AM 57.2 °F 44.6 °F 63% 30.37 in 10.0 mi Calm Calm - N/A   Partly Cloudy
10:45 AM 64.4 °F 41.0 °F 42% 30.37 in 10.0 mi SSW 4.6 mph - N/A   Partly Cloudy
11:45 AM 69.8 °F 41.0 °F 35% 30.36 in 10.0 mi South 4.6 mph - N/A   Partly Cloudy
12:45 PM 75.2 °F 42.8 °F 31% 30.33 in 10.0 mi SW 4.6 mph - N/A   Scattered Clouds
1:45 PM 77.0 °F 37.4 °F 24% 30.31 in 10.0 mi SW 4.6 mph - N/A   Scattered Clouds
2:45 PM 77.0 °F 37.4 °F 24% 30.30 in 10.0 mi West 6.9 mph - N/A   Scattered Clouds
3:50 PM 77.0 °F 39.2 °F 26% 30.30 in 10.0 mi WSW 5.8 mph - N/A   Mostly Cloudy
4:50 PM 73.4 °F 39.2 °F 29% 30.31 in 10.0 mi WSW 5.8 mph - N/A   Mostly Cloudy
5:45 PM 66.2 °F 50.0 °F 56% 30.32 in 1.0 mi WNW 3.5 mph - N/A   Mostly Cloudy
5:46 PM 66.2 °F 50.0 °F 56% 30.32 in 15.0 mi WNW 3.5 mph - N/A   Mostly Cloudy
6:46 PM 55.4 °F 48.2 °F 77% 30.33 in 10.0 mi Calm Calm - N/A   Mostly Cloudy
7:45 PM 53.6 °F 48.2 °F 82% 30.34 in 10.0 mi Calm Calm - N/A   Mostly Cloudy
8:45 PM 48.2 °F 46.4 °F 93% 30.36 in 10.0 mi Calm Calm - N/A   Mostly Cloudy
9:45 PM 48.2 °F 46.4 °F 93% 30.37 in 10.0 mi Calm Calm - N/A   Mostly Cloudy
10:35 PM 44.6 °F 42.8 °F 93% 30.37 in 10.0 mi Calm Calm - N/A   Clear
10:50 PM 42.8 °F 42.8 °F 100% 30.37 in 10.0 mi Calm Calm - N/A   Clear
11:15 PM 44.6 °F 42.8 °F 93% 30.37 in 10.0 mi Calm Calm - N/A   Clear
11:35 PM 42.8 °F 41.0 °F 93% 30.37 in 10.0 mi Calm Calm - N/A   Clear
11:55 PM 42.8 °F 42.8 °F 100% 30.37 in 10.0 mi Calm Calm - N/A   Clear